,,,PA_Meas_PMT16A,,PR_Meas_QMR101_102,,RH_Meas_QMH101,,SR_Meas_QMS101,,TA_Meas_QMH101,,GenWind,,GenWind,
date,time,status,PA,status,PR,status,RH,status,SR,status,TA,status,DirAvg,status,SpdAvg,
2011-07-25, 00:00:04,VALID,1008.972,VALID,0.0,VALID,104.0,VALID,0.106,VALID,23.713,VALID,154.0,VALID,0.0,
2011-07-25, 00:01:04,VALID,1009.001,VALID,0.0,VALID,104.0,VALID,0.0,VALID,23.694,VALID,154.0,VALID,0.007,
2011-07-25, 00:02:04,VALID,1008.962,VALID,0.0,VALID,104.0,VALID,0.0,VALID,23.694,VALID,154.0,VALID,0.148,
2011-07-25, 00:03:04,VALID,1008.95,VALID,0.0,VALID,104.0,VALID,0.0,VALID,23.653,VALID,154.0,VALID,0.246,
2011-07-25, 00:04:04,VALID,1008.958,VALID,0.0,VALID,104.0,VALID,0.0,VALID,23.673,VALID,154.0,VALID,0.213,
2011-07-25, 00:05:04,VALID,1008.915,VALID,0.0,VALID,104.0,VALID,0.0,VALID,23.653,VALID,154.0,VALID,0.275,
2011-07-25, 00:06:04,VALID,1008.915,VALID,0.0,VALID,104.0,VALID,0.0,VALID,23.655,VALID,154.0,VALID,0.21,
2011-07-25, 00:07:04,VALID,1008.888,VALID,0.0,VALID,104.0,VALID,0.0,VALID,23.655,VALID,154.0,VALID,0.086,
2011-07-25, 00:08:04,VALID,1008.894,VALID,0.0,VALID,104.0,VALID,0.106,VALID,23.675,VALID,154.0,VALID,0.245,
2011-07-25, 00:09:04,VALID,1008.877,VALID,0.0,VALID,104.0,VALID,0.0,VALID,23.713,VALID,154.0,VALID,0.243,
2011-07-25, 00:10:04,VALID,1008.887,VALID,0.0,VALID,104.0,VALID,0.106,VALID,23.694,VALID,154.0,VALID,0.273,
2011-07-25, 00:11:04,VALID,1008.856,VALID,0.0,VALID,104.0,VALID,0.106,VALID,23.694,VALID,154.0,VALID,0.033,
2011-07-25, 00:12:04,VALID,1008.826,VALID,0.0,VALID,104.0,VALID,0.0,VALID,23.655,VALID,154.0,VALID,0.196,
2011-07-25, 00:13:04,VALID,1008.833,VALID,0.0,VALID,104.0,VALID,0.0,VALID,23.616,VALID,154.0,VALID,0.25,
2011-07-25, 00:14:04,VALID,1008.845,VALID,0.0,VALID,104.0,VALID,0.0,VALID,23.597,VALID,154.0,VALID,0.143,
2011-07-25, 00:15:04,VALID,1008.87,VALID,0.0,VALID,104.0,VALID,0.0,VALID,23.616,VALID,154.0,VALID,0.259,
2011-07-25, 00:16:04,VALID,1008.868,VALID,0.0,VALID,104.0,VALID,0.0,VALID,23.616,VALID,154.0,VALID,0.424,
2011-07-25, 00:17:04,VALID,1008.892,VALID,0.0,VALID,104.0,VALID,0.106,VALID,23.636,VALID,154.0,VALID,0.393,
2011-07-25, 00:18:04,VALID,1008.888,VALID,0.0,VALID,104.0,VALID,0.0,VALID,23.616,VALID,154.0,VALID,0.255,
2011-07-25, 00:19:04,VALID,1008.893,VALID,0.0,VALID,104.0,VALID,0.0,VALID,23.636,VALID,154.0,VALID,0.28,
2011-07-25, 00:20:04,VALID,1008.87,VALID,0.0,VALID,104.0,VALID,0.0,VALID,23.614,VALID,154.0,VALID,0.156,
2011-07-25, 00:21:04,VALID,1008.864,VALID,0.0,VALID,104.0,VALID,0.106,VALID,23.597,VALID,154.0,VALID,0.256,
2011-07-25, 00:22:04,VALID,1008.816,VALID,0.0,VALID,104.0,VALID,0.0,VALID,23.597,VALID,154.0,VALID,0.196,
2011-07-25, 00:23:04,VALID,1008.812,VALID,0.0,VALID,104.0,VALID,0.0,VALID,23.597,VALID,154.0,VALID,0.144,
2011-07-25, 00:24:04,VALID,1008.791,VALID,0.0,VALID,104.0,VALID,0.106,VALID,23.558,VALID,154.0,VALID,0.161,
2011-07-25, 00:25:04,VALID,1008.848,VALID,0.0,VALID,104.0,VALID,0.0,VALID,23.556,VALID,154.0,VALID,0.176,
2011-07-25, 00:26:04,VALID,1008.844,VALID,0.0,VALID,104.0,VALID,0.0,VALID,23.556,VALID,154.0,VALID,0.221,
2011-07-25, 00:27:04,VALID,1008.869,VALID,0.0,VALID,104.0,VALID,0.0,VALID,23.597,VALID,154.0,VALID,0.331,
2011-07-25, 00:28:04,VALID,1008.868,VALID,0.0,VALID,104.0,VALID,0.0,VALID,23.597,VALID,154.0,VALID,0.234,
2011-07-25, 00:29:04,VALID,1008.882,VALID,0.0,VALID,104.0,VALID,0.106,VALID,23.597,VALID,154.0,VALID,0.314,
2011-07-25, 00:30:04,VALID,1008.869,VALID,0.0,VALID,104.0,VALID,0.0,VALID,23.575,VALID,154.0,VALID,0.383,
2011-07-25, 00:31:04,VALID,1008.867,VALID,0.0,VALID,104.0,VALID,0.106,VALID,23.558,VALID,154.0,VALID,0.457,
2011-07-25, 00:32:04,VALID,1008.86,VALID,0.0,VALID,104.0,VALID,0.106,VALID,23.536,VALID,154.0,VALID,0.528,
2011-07-25, 00:33:04,VALID,1008.874,VALID,0.0,VALID,104.0,VALID,0.0,VALID,23.538,VALID,154.0,VALID,0.414,
2011-07-25, 00:34:04,VALID,1008.878,VALID,0.0,VALID,104.0,VALID,0.0,VALID,23.538,VALID,154.0,VALID,0.352,
2011-07-25, 00:35:04,VALID,1008.888,VALID,0.0,VALID,104.0,VALID,0.0,VALID,23.54,VALID,154.0,VALID,0.387,
2011-07-25, 00:36:04,VALID,1008.9,VALID,0.0,VALID,104.0,VALID,0.0,VALID,23.519,VALID,154.0,VALID,0.355,
2011-07-25, 00:37:04,VALID,1008.9,VALID,0.0,VALID,104.0,VALID,0.0,VALID,23.499,VALID,154.0,VALID,0.449,
2011-07-25, 00:38:04,VALID,1008.888,VALID,0.0,VALID,104.0,VALID,0.106,VALID,23.519,VALID,154.0,VALID,0.396,
2011-07-25, 00:39:04,VALID,1008.9,VALID,0.0,VALID,104.0,VALID,0.0,VALID,23.48,VALID,154.0,VALID,0.439,
2011-07-25, 00:40:04,VALID,1008.91,VALID,0.0,VALID,104.0,VALID,0.106,VALID,23.48,VALID,94.0,VALID,0.58,
2011-07-25, 00:41:04,VALID,1008.907,VALID,0.0,VALID,104.0,VALID,0.0,VALID,23.499,VALID,34.0,VALID,0.432,
2011-07-25, 00:42:04,VALID,1008.938,VALID,0.0,VALID,104.0,VALID,0.0,VALID,23.48,VALID,34.0,VALID,0.327,
2011-07-25, 00:43:04,VALID,1008.948,VALID,0.0,VALID,104.0,VALID,0.0,VALID,23.48,VALID,34.0,VALID,0.298,
2011-07-25, 00:44:04,VALID,1008.978,VALID,0.0,VALID,104.0,VALID,0.0,VALID,23.46,VALID,32.0,VALID,0.506,
2011-07-25, 00:45:04,VALID,1008.959,VALID,0.0,VALID,104.0,VALID,0.0,VALID,23.46,VALID,32.0,VALID,0.32,
2011-07-25, 00:46:04,VALID,1008.975,VALID,0.0,VALID,104.0,VALID,0.0,VALID,23.48,VALID,32.0,VALID,0.268,
2011-07-25, 00:47:04,VALID,1008.967,VALID,0.0,VALID,104.0,VALID,0.0,VALID,23.46,VALID,32.0,VALID,0.25,
2011-07-25, 00:48:04,VALID,1008.959,VALID,0.0,VALID,104.0,VALID,0.0,VALID,23.46,VALID,32.0,VALID,0.228,
2011-07-25, 00:49:04,VALID,1008.969,VALID,0.0,VALID,104.0,VALID,0.0,VALID,23.46,VALID,32.0,VALID,0.15,
2011-07-25, 00:50:04,VALID,1008.969,VALID,0.0,VALID,104.0,VALID,0.0,VALID,23.441,VALID,32.0,VALID,0.0,
2011-07-25, 00:51:04,VALID,1009.002,VALID,0.0,VALID,104.0,VALID,0.0,VALID,23.402,VALID,32.0,VALID,0.003,
2011-07-25, 00:52:04,VALID,1008.977,VALID,0.0,VALID,104.0,VALID,0.0,VALID,23.382,VALID,32.0,VALID,0.0,
2011-07-25, 00:53:04,VALID,1009.006,VALID,0.0,VALID,104.0,VALID,0.0,VALID,23.363,VALID,32.0,VALID,0.0,
2011-07-25, 00:54:04,VALID,1009.009,VALID,0.0,VALID,104.0,VALID,0.0,VALID,23.363,VALID,32.0,VALID,0.0,
2011-07-25, 00:55:04,VALID,1008.972,VALID,0.0,VALID,104.0,VALID,0.106,VALID,23.382,VALID,32.0,VALID,0.0,
2011-07-25, 00:56:04,VALID,1008.985,VALID,0.0,VALID,104.0,VALID,0.0,VALID,23.343,VALID,32.0,VALID,0.0,
2011-07-25, 00:57:04,VALID,1008.966,VALID,0.0,VALID,104.0,VALID,0.0,VALID,23.343,VALID,32.0,VALID,0.002,
2011-07-25, 00:58:04,VALID,1008.952,VALID,0.0,VALID,104.0,VALID,0.0,VALID,23.363,VALID,32.0,VALID,0.224,
2011-07-25, 00:59:04,VALID,1008.952,VALID,0.0,VALID,104.0,VALID,0.0,VALID,23.363,VALID,32.0,VALID,0.239,
2011-07-25, 01:00:04,VALID,1008.936,VALID,0.0,VALID,104.0,VALID,0.0,VALID,23.363,VALID,32.0,VALID,0.235,
2011-07-25, 01:01:04,VALID,1008.962,VALID,0.0,VALID,104.0,VALID,0.0,VALID,23.363,VALID,32.0,VALID,0.13,
2011-07-25, 01:02:04,VALID,1008.977,VALID,0.0,VALID,104.0,VALID,0.106,VALID,23.382,VALID,32.0,VALID,0.0,
2011-07-25, 01:03:04,VALID,1008.924,VALID,0.0,VALID,104.0,VALID,0.0,VALID,23.382,VALID,32.0,VALID,0.0,
2011-07-25, 01:04:04,VALID,1008.906,VALID,0.0,VALID,104.0,VALID,0.0,VALID,23.343,VALID,32.0,VALID,0.0,
2011-07-25, 01:05:04,VALID,1008.875,VALID,0.0,VALID,104.0,VALID,0.0,VALID,23.382,VALID,32.0,VALID,0.298,
2011-07-25, 01:06:04,VALID,1008.875,VALID,0.0,VALID,104.0,VALID,0.0,VALID,23.363,VALID,32.0,VALID,0.182,
2011-07-25, 01:07:04,VALID,1008.852,VALID,0.0,VALID,104.0,VALID,0.0,VALID,23.345,VALID,32.0,VALID,0.234,
2011-07-25, 01:08:04,VALID,1008.862,VALID,0.0,VALID,104.0,VALID,0.0,VALID,23.324,VALID,32.0,VALID,0.297,
2011-07-25, 01:09:04,VALID,1008.86,VALID,0.0,VALID,104.0,VALID,0.0,VALID,23.304,VALID,32.0,VALID,0.133,
2011-07-25, 01:10:04,VALID,1008.826,VALID,0.0,VALID,104.0,VALID,0.0,VALID,23.324,VALID,32.0,VALID,0.225,
2011-07-25, 01:11:04,VALID,1008.83,VALID,0.0,VALID,104.0,VALID,0.0,VALID,23.343,VALID,32.0,VALID,0.12,
2011-07-25, 01:12:04,VALID,1008.825,VALID,0.0,VALID,104.0,VALID,0.0,VALID,23.304,VALID,32.0,VALID,0.0,
2011-07-25, 01:13:04,VALID,1008.818,VALID,0.0,VALID,104.0,VALID,0.0,VALID,23.304,VALID,32.0,VALID,0.0,
2011-07-25, 01:14:04,VALID,1008.805,VALID,0.0,VALID,104.0,VALID,0.0,VALID,23.285,VALID,32.0,VALID,0.0,
2011-07-25, 01:15:04,VALID,1008.829,VALID,0.0,VALID,104.0,VALID,0.0,VALID,23.285,VALID,33.0,VALID,0.0,
2011-07-25, 01:16:04,VALID,1008.818,VALID,0.0,VALID,104.0,VALID,0.0,VALID,23.265,VALID,32.0,VALID,0.0,
2011-07-25, 01:17:04,VALID,1008.788,VALID,0.0,VALID,104.0,VALID,0.0,VALID,23.265,VALID,32.0,VALID,0.0,
2011-07-25, 01:18:04,VALID,1008.811,VALID,0.0,VALID,104.0,VALID,0.0,VALID,23.265,VALID,32.0,VALID,0.0,
2011-07-25, 01:19:04,VALID,1008.777,VALID,0.0,VALID,104.0,VALID,0.0,VALID,23.265,VALID,32.0,VALID,0.0,
2011-07-25, 01:20:04,VALID,1008.792,VALID,0.0,VALID,104.0,VALID,0.0,VALID,23.285,VALID,32.0,VALID,0.134,
2011-07-25, 01:21:04,VALID,1008.761,VALID,0.0,VALID,104.0,VALID,0.0,VALID,23.285,VALID,32.0,VALID,0.245,
2011-07-25, 01:22:04,VALID,1008.765,VALID,0.0,VALID,104.0,VALID,0.0,VALID,23.304,VALID,32.0,VALID,0.258,
2011-07-25, 01:23:04,VALID,1008.759,VALID,0.0,VALID,104.0,VALID,0.0,VALID,23.304,VALID,32.0,VALID,0.184,
2011-07-25, 01:24:04,VALID,1008.773,VALID,0.0,VALID,104.0,VALID,0.0,VALID,23.324,VALID,33.0,VALID,0.159,
2011-07-25, 01:25:04,VALID,1008.767,VALID,0.0,VALID,104.0,VALID,0.106,VALID,23.283,VALID,33.0,VALID,0.117,
2011-07-25, 01:26:04,VALID,1008.783,VALID,0.0,VALID,104.0,VALID,0.0,VALID,23.304,VALID,32.0,VALID,0.166,
2011-07-25, 01:27:04,VALID,1008.761,VALID,0.0,VALID,104.0,VALID,0.106,VALID,23.304,VALID,32.0,VALID,0.184,
2011-07-25, 01:28:04,VALID,1008.754,VALID,0.0,VALID,104.0,VALID,0.0,VALID,23.304,VALID,32.0,VALID,0.341,
2011-07-25, 01:29:04,VALID,1008.748,VALID,0.0,VALID,104.0,VALID,0.0,VALID,23.324,VALID,32.0,VALID,0.291,
2011-07-25, 01:30:04,VALID,1008.742,VALID,0.0,VALID,104.0,VALID,0.0,VALID,23.343,VALID,32.0,VALID,0.187,
2011-07-25, 01:31:04,VALID,1008.719,VALID,0.0,VALID,104.0,VALID,0.0,VALID,23.303,VALID,32.0,VALID,0.184,
2011-07-25, 01:32:04,VALID,1008.702,VALID,0.0,VALID,104.0,VALID,0.0,VALID,23.285,VALID,32.0,VALID,0.159,
2011-07-25, 01:33:04,VALID,1008.721,VALID,0.0,VALID,104.0,VALID,0.0,VALID,23.265,VALID,32.0,VALID,0.143,
2011-07-25, 01:34:04,VALID,1008.727,VALID,0.0,VALID,104.0,VALID,0.0,VALID,23.246,VALID,32.0,VALID,0.0,
2011-07-25, 01:35:04,VALID,1008.71,VALID,0.0,VALID,104.0,VALID,0.0,VALID,23.207,VALID,32.0,VALID,0.0,
2011-07-25, 01:36:04,VALID,1008.742,VALID,0.0,VALID,104.0,VALID,0.106,VALID,23.207,VALID,32.0,VALID,0.0,
2011-07-25, 01:37:04,VALID,1008.725,VALID,0.0,VALID,104.0,VALID,0.0,VALID,23.187,VALID,32.0,VALID,0.0,
2011-07-25, 01:38:04,VALID,1008.742,VALID,0.0,VALID,104.0,VALID,0.0,VALID,23.187,VALID,32.0,VALID,0.0,
2011-07-25, 01:39:04,VALID,1008.698,VALID,0.0,VALID,104.0,VALID,0.0,VALID,23.187,VALID,32.0,VALID,0.0,
2011-07-25, 01:40:04,VALID,1008.685,VALID,0.0,VALID,104.0,VALID,0.0,VALID,23.207,VALID,32.0,VALID,0.0,
2011-07-25, 01:41:04,VALID,1008.674,VALID,0.0,VALID,104.0,VALID,0.0,VALID,23.226,VALID,32.0,VALID,0.0,
2011-07-25, 01:42:04,VALID,1008.648,VALID,0.0,VALID,104.0,VALID,0.0,VALID,23.207,VALID,32.0,VALID,0.0,
2011-07-25, 01:43:04,VALID,1008.656,VALID,0.0,VALID,104.0,VALID,0.106,VALID,23.207,VALID,32.0,VALID,0.0,
2011-07-25, 01:44:04,VALID,1008.659,VALID,0.0,VALID,104.0,VALID,0.106,VALID,23.207,VALID,32.0,VALID,0.0,
2011-07-25, 01:45:04,VALID,1008.634,VALID,0.0,VALID,104.0,VALID,0.0,VALID,23.226,VALID,32.0,VALID,0.186,
2011-07-25, 01:46:04,VALID,1008.632,VALID,0.0,VALID,104.0,VALID,0.0,VALID,23.226,VALID,32.0,VALID,0.238,
2011-07-25, 01:47:04,VALID,1008.634,VALID,0.0,VALID,104.0,VALID,0.0,VALID,23.207,VALID,32.0,VALID,0.18,
2011-07-25, 01:48:04,VALID,1008.655,VALID,0.0,VALID,104.0,VALID,0.0,VALID,23.187,VALID,32.0,VALID,0.279,
2011-07-25, 01:49:04,VALID,1008.634,VALID,0.0,VALID,104.0,VALID,0.0,VALID,23.187,VALID,32.0,VALID,0.172,
2011-07-25, 01:50:04,VALID,1008.666,VALID,0.0,VALID,104.0,VALID,0.0,VALID,23.187,VALID,32.0,VALID,0.027,
2011-07-25, 01:51:04,VALID,1008.677,VALID,0.0,VALID,104.0,VALID,0.0,VALID,23.207,VALID,32.0,VALID,0.016,
2011-07-25, 01:52:04,VALID,1008.665,VALID,0.0,VALID,104.0,VALID,0.0,VALID,23.207,VALID,32.0,VALID,0.0,
2011-07-25, 01:53:04,VALID,1008.659,VALID,0.0,VALID,104.0,VALID,0.0,VALID,23.207,VALID,32.0,VALID,0.0,
2011-07-25, 01:54:04,VALID,1008.657,VALID,0.0,VALID,104.0,VALID,0.0,VALID,23.226,VALID,32.0,VALID,0.0,
2011-07-25, 01:55:04,VALID,1008.643,VALID,0.0,VALID,104.0,VALID,0.0,VALID,23.246,VALID,32.0,VALID,0.0,
2011-07-25, 01:56:04,VALID,1008.675,VALID,0.0,VALID,104.0,VALID,0.0,VALID,23.265,VALID,32.0,VALID,0.0,
2011-07-25, 01:57:04,VALID,1008.638,VALID,0.0,VALID,104.0,VALID,0.0,VALID,23.304,VALID,32.0,VALID,0.12,
2011-07-25, 01:58:04,VALID,1008.614,VALID,0.0,VALID,104.0,VALID,0.0,VALID,23.304,VALID,32.0,VALID,0.14,
2011-07-25, 01:59:04,VALID,1008.629,VALID,0.0,VALID,104.0,VALID,0.0,VALID,23.345,VALID,32.0,VALID,0.182,
2011-07-25, 02:00:04,VALID,1008.598,VALID,0.0,VALID,104.0,VALID,0.0,VALID,23.326,VALID,32.0,VALID,0.111,
2011-07-25, 02:01:04,VALID,1008.62,VALID,0.0,VALID,104.0,VALID,0.0,VALID,23.304,VALID,32.0,VALID,0.134,
2011-07-25, 02:02:04,VALID,1008.609,VALID,0.0,VALID,104.0,VALID,0.0,VALID,23.285,VALID,32.0,VALID,0.093,
2011-07-25, 02:03:04,VALID,1008.601,VALID,0.0,VALID,104.0,VALID,0.0,VALID,23.265,VALID,32.0,VALID,0.0,
2011-07-25, 02:04:04,VALID,1008.631,VALID,0.0,VALID,104.0,VALID,0.106,VALID,23.244,VALID,32.0,VALID,0.053,
2011-07-25, 02:05:04,VALID,1008.629,VALID,0.0,VALID,104.0,VALID,0.0,VALID,23.265,VALID,32.0,VALID,0.12,
2011-07-25, 02:06:04,VALID,1008.611,VALID,0.0,VALID,104.0,VALID,0.0,VALID,23.265,VALID,32.0,VALID,0.253,
2011-07-25, 02:07:04,VALID,1008.625,VALID,0.0,VALID,104.0,VALID,0.0,VALID,23.265,VALID,32.0,VALID,0.152,
2011-07-25, 02:08:04,VALID,1008.621,VALID,0.0,VALID,104.0,VALID,0.0,VALID,23.226,VALID,32.0,VALID,0.166,
2011-07-25, 02:09:04,VALID,1008.606,VALID,0.0,VALID,104.0,VALID,0.0,VALID,23.147,VALID,32.0,VALID,0.295,
2011-07-25, 02:10:04,VALID,1008.616,VALID,0.0,VALID,104.0,VALID,0.106,VALID,23.129,VALID,32.0,VALID,0.229,
2011-07-25, 02:11:04,VALID,1008.644,VALID,0.0,VALID,104.0,VALID,0.0,VALID,23.109,VALID,32.0,VALID,0.188,
2011-07-25, 02:12:04,VALID,1008.621,VALID,0.0,VALID,104.0,VALID,0.106,VALID,23.109,VALID,32.0,VALID,0.227,
2011-07-25, 02:13:04,VALID,1008.636,VALID,0.0,VALID,104.0,VALID,0.106,VALID,23.109,VALID,32.0,VALID,0.03,
2011-07-25, 02:14:04,VALID,1008.626,VALID,0.0,VALID,104.0,VALID,0.106,VALID,23.109,VALID,32.0,VALID,0.0,
2011-07-25, 02:15:04,VALID,1008.619,VALID,0.0,VALID,104.0,VALID,0.106,VALID,23.109,VALID,32.0,VALID,0.0,
2011-07-25, 02:16:04,VALID,1008.645,VALID,0.0,VALID,104.0,VALID,0.0,VALID,23.109,VALID,32.0,VALID,0.0,
2011-07-25, 02:17:04,VALID,1008.62,VALID,0.0,VALID,104.0,VALID,0.0,VALID,23.109,VALID,32.0,VALID,0.0,
2011-07-25, 02:18:04,VALID,1008.626,VALID,0.0,VALID,104.0,VALID,0.0,VALID,23.129,VALID,32.0,VALID,0.0,
2011-07-25, 02:19:04,VALID,1008.627,VALID,0.0,VALID,104.0,VALID,0.0,VALID,23.129,VALID,32.0,VALID,0.0,
2011-07-25, 02:20:04,VALID,1008.614,VALID,0.0,VALID,104.0,VALID,0.0,VALID,23.108,VALID,32.0,VALID,0.251,
2011-07-25, 02:21:04,VALID,1008.602,VALID,0.0,VALID,104.0,VALID,0.106,VALID,23.127,VALID,32.0,VALID,0.259,
2011-07-25, 02:22:04,VALID,1008.599,VALID,0.0,VALID,104.0,VALID,0.0,VALID,23.168,VALID,32.0,VALID,0.318,
2011-07-25, 02:23:04,VALID,1008.56,VALID,0.0,VALID,104.0,VALID,0.0,VALID,23.168,VALID,32.0,VALID,0.252,
2011-07-25, 02:24:04,VALID,1008.569,VALID,0.0,VALID,104.0,VALID,0.0,VALID,23.129,VALID,32.0,VALID,0.016,
2011-07-25, 02:25:04,VALID,1008.564,VALID,0.0,VALID,104.0,VALID,0.106,VALID,23.129,VALID,32.0,VALID,0.0,
2011-07-25, 02:26:04,VALID,1008.572,VALID,0.0,VALID,104.0,VALID,0.0,VALID,23.129,VALID,32.0,VALID,0.0,
2011-07-25, 02:27:04,VALID,1008.593,VALID,0.0,VALID,104.0,VALID,0.0,VALID,23.129,VALID,32.0,VALID,0.0,
2011-07-25, 02:28:04,VALID,1008.611,VALID,0.0,VALID,104.0,VALID,0.0,VALID,23.129,VALID,32.0,VALID,0.0,
2011-07-25, 02:29:04,VALID,1008.625,VALID,0.0,VALID,104.0,VALID,0.106,VALID,23.129,VALID,32.0,VALID,0.0,
2011-07-25, 02:30:04,VALID,1008.654,VALID,0.0,VALID,104.0,VALID,0.0,VALID,23.148,VALID,32.0,VALID,0.0,
2011-07-25, 02:31:04,VALID,1008.638,VALID,0.0,VALID,104.0,VALID,0.0,VALID,23.168,VALID,32.0,VALID,0.247,
2011-07-25, 02:32:04,VALID,1008.651,VALID,0.0,VALID,104.0,VALID,0.0,VALID,23.168,VALID,32.0,VALID,0.305,
2011-07-25, 02:33:04,VALID,1008.658,VALID,0.0,VALID,104.0,VALID,0.106,VALID,23.187,VALID,32.0,VALID,0.268,
2011-07-25, 02:34:04,VALID,1008.701,VALID,0.0,VALID,104.0,VALID,0.0,VALID,23.186,VALID,32.0,VALID,0.0,
2011-07-25, 02:35:04,VALID,1008.678,VALID,0.0,VALID,104.0,VALID,0.0,VALID,23.187,VALID,32.0,VALID,0.0,
2011-07-25, 02:36:04,VALID,1008.679,VALID,0.0,VALID,104.0,VALID,0.0,VALID,23.148,VALID,32.0,VALID,0.0,
2011-07-25, 02:37:04,VALID,1008.654,VALID,0.0,VALID,104.0,VALID,0.0,VALID,23.108,VALID,32.0,VALID,0.0,
2011-07-25, 02:38:04,VALID,1008.64,VALID,0.0,VALID,104.0,VALID,0.0,VALID,23.088,VALID,32.0,VALID,0.0,
2011-07-25, 02:39:04,VALID,1008.66,VALID,0.0,VALID,104.0,VALID,0.106,VALID,23.069,VALID,32.0,VALID,0.0,
2011-07-25, 02:40:04,VALID,1008.647,VALID,0.0,VALID,104.0,VALID,0.106,VALID,23.088,VALID,32.0,VALID,0.109,
2011-07-25, 02:41:04,VALID,1008.619,VALID,0.0,VALID,104.0,VALID,0.0,VALID,23.129,VALID,32.0,VALID,0.005,
2011-07-25, 02:42:04,VALID,1008.593,VALID,0.0,VALID,104.0,VALID,0.0,VALID,23.148,VALID,32.0,VALID,0.202,
2011-07-25, 02:43:04,VALID,1008.606,VALID,0.0,VALID,104.0,VALID,0.0,VALID,23.148,VALID,32.0,VALID,0.209,
2011-07-25, 02:44:04,VALID,1008.608,VALID,0.0,VALID,104.0,VALID,0.0,VALID,23.148,VALID,32.0,VALID,0.117,
2011-07-25, 02:45:04,VALID,1008.597,VALID,0.0,VALID,104.0,VALID,0.0,VALID,23.129,VALID,32.0,VALID,0.27,
2011-07-25, 02:46:04,VALID,1008.622,VALID,0.0,VALID,104.0,VALID,0.0,VALID,23.109,VALID,32.0,VALID,0.292,
2011-07-25, 02:47:04,VALID,1008.615,VALID,0.0,VALID,104.0,VALID,0.0,VALID,23.109,VALID,32.0,VALID,0.28,
2011-07-25, 02:48:04,VALID,1008.644,VALID,0.0,VALID,104.0,VALID,0.106,VALID,23.109,VALID,32.0,VALID,0.264,
2011-07-25, 02:49:04,VALID,1008.645,VALID,0.0,VALID,104.0,VALID,0.0,VALID,23.109,VALID,32.0,VALID,0.186,
2011-07-25, 02:50:04,VALID,1008.651,VALID,0.0,VALID,104.0,VALID,0.0,VALID,23.09,VALID,32.0,VALID,0.049,
2011-07-25, 02:51:04,VALID,1008.667,VALID,0.0,VALID,104.0,VALID,0.0,VALID,23.09,VALID,32.0,VALID,0.0,
2011-07-25, 02:52:04,VALID,1008.66,VALID,0.0,VALID,104.0,VALID,0.0,VALID,23.071,VALID,32.0,VALID,0.0,
2011-07-25, 02:53:04,VALID,1008.648,VALID,0.0,VALID,104.0,VALID,0.0,VALID,23.071,VALID,32.0,VALID,0.305,
2011-07-25, 02:54:04,VALID,1008.628,VALID,0.0,VALID,104.0,VALID,0.0,VALID,23.09,VALID,32.0,VALID,0.045,
2011-07-25, 02:55:04,VALID,1008.615,VALID,0.0,VALID,104.0,VALID,0.0,VALID,23.071,VALID,32.0,VALID,0.0,
2011-07-25, 02:56:04,VALID,1008.612,VALID,0.0,VALID,104.0,VALID,0.106,VALID,23.071,VALID,32.0,VALID,0.0,
2011-07-25, 02:57:04,VALID,1008.636,VALID,0.0,VALID,104.0,VALID,0.106,VALID,23.09,VALID,32.0,VALID,0.0,
2011-07-25, 02:58:04,VALID,1008.629,VALID,0.0,VALID,104.0,VALID,0.0,VALID,23.09,VALID,32.0,VALID,0.0,
2011-07-25, 02:59:04,VALID,1008.615,VALID,0.0,VALID,104.0,VALID,0.106,VALID,23.088,VALID,32.0,VALID,0.0,
2011-07-25, 03:00:04,VALID,1008.609,VALID,0.0,VALID,104.0,VALID,0.0,VALID,23.109,VALID,32.0,VALID,0.0,
2011-07-25, 03:01:04,VALID,1008.614,VALID,0.0,VALID,104.0,VALID,0.106,VALID,23.088,VALID,32.0,VALID,0.0,
2011-07-25, 03:02:04,VALID,1008.616,VALID,0.0,VALID,104.0,VALID,0.106,VALID,23.109,VALID,32.0,VALID,0.0,
2011-07-25, 03:03:04,VALID,1008.641,VALID,0.0,VALID,104.0,VALID,0.106,VALID,23.129,VALID,32.0,VALID,0.0,
2011-07-25, 03:04:04,VALID,1008.621,VALID,0.0,VALID,104.0,VALID,0.0,VALID,23.129,VALID,32.0,VALID,0.0,
2011-07-25, 03:05:04,VALID,1008.667,VALID,0.0,VALID,104.0,VALID,0.106,VALID,23.148,VALID,32.0,VALID,0.0,
2011-07-25, 03:06:04,VALID,1008.642,VALID,0.0,VALID,104.0,VALID,0.0,VALID,23.166,VALID,32.0,VALID,0.0,
2011-07-25, 03:07:04,VALID,1008.634,VALID,0.0,VALID,104.0,VALID,0.0,VALID,23.187,VALID,32.0,VALID,0.0,
2011-07-25, 03:08:04,VALID,1008.639,VALID,0.0,VALID,104.0,VALID,0.0,VALID,23.187,VALID,32.0,VALID,0.0,
2011-07-25, 03:09:04,VALID,1008.633,VALID,0.0,VALID,104.0,VALID,0.0,VALID,23.187,VALID,32.0,VALID,0.0,
2011-07-25, 03:10:04,VALID,1008.645,VALID,0.0,VALID,104.0,VALID,0.0,VALID,23.166,VALID,32.0,VALID,0.0,
2011-07-25, 03:11:04,VALID,1008.607,VALID,0.0,VALID,104.0,VALID,0.0,VALID,23.187,VALID,32.0,VALID,0.0,
2011-07-25, 03:12:04,VALID,1008.605,VALID,0.0,VALID,104.0,VALID,0.0,VALID,23.187,VALID,32.0,VALID,0.047,
2011-07-25, 03:13:04,VALID,1008.633,VALID,0.0,VALID,104.0,VALID,0.106,VALID,23.168,VALID,32.0,VALID,0.111,
2011-07-25, 03:14:04,VALID,1008.614,VALID,0.0,VALID,104.0,VALID,0.0,VALID,23.168,VALID,32.0,VALID,0.21,
2011-07-25, 03:15:04,VALID,1008.613,VALID,0.0,VALID,104.0,VALID,0.0,VALID,23.168,VALID,32.0,VALID,0.167,
2011-07-25, 03:16:04,VALID,1008.629,VALID,0.0,VALID,104.0,VALID,0.0,VALID,23.187,VALID,32.0,VALID,0.223,
2011-07-25, 03:17:04,VALID,1008.613,VALID,0.0,VALID,104.0,VALID,0.0,VALID,23.166,VALID,32.0,VALID,0.041,
2011-07-25, 03:18:04,VALID,1008.598,VALID,0.0,VALID,104.0,VALID,0.0,VALID,23.168,VALID,32.0,VALID,0.0,
2011-07-25, 03:19:04,VALID,1008.596,VALID,0.0,VALID,104.0,VALID,0.0,VALID,23.168,VALID,32.0,VALID,0.181,
2011-07-25, 03:20:04,VALID,1008.609,VALID,0.0,VALID,104.0,VALID,0.0,VALID,23.148,VALID,32.0,VALID,0.228,
2011-07-25, 03:21:04,VALID,1008.621,VALID,0.0,VALID,104.0,VALID,0.0,VALID,23.148,VALID,32.0,VALID,0.22,
2011-07-25, 03:22:04,VALID,1008.62,VALID,0.0,VALID,104.0,VALID,0.106,VALID,23.148,VALID,32.0,VALID,0.068,
2011-07-25, 03:23:04,VALID,1008.629,VALID,0.0,VALID,104.0,VALID,0.106,VALID,23.168,VALID,32.0,VALID,0.0,
2011-07-25, 03:24:04,VALID,1008.633,VALID,0.0,VALID,104.0,VALID,0.106,VALID,23.168,VALID,32.0,VALID,0.0,
2011-07-25, 03:25:04,VALID,1008.642,VALID,0.0,VALID,104.0,VALID,0.106,VALID,23.168,VALID,32.0,VALID,0.0,
2011-07-25, 03:26:04,VALID,1008.643,VALID,0.0,VALID,104.0,VALID,0.106,VALID,23.168,VALID,32.0,VALID,0.0,
2011-07-25, 03:27:04,VALID,1008.622,VALID,0.0,VALID,104.0,VALID,0.106,VALID,23.168,VALID,32.0,VALID,0.0,
2011-07-25, 03:28:04,VALID,1008.616,VALID,0.0,VALID,104.0,VALID,0.106,VALID,23.168,VALID,32.0,VALID,0.0,
2011-07-25, 03:29:04,VALID,1008.6,VALID,0.0,VALID,104.0,VALID,0.0,VALID,23.168,VALID,32.0,VALID,0.0,
2011-07-25, 03:30:04,VALID,1008.555,VALID,0.0,VALID,104.0,VALID,0.106,VALID,23.148,VALID,32.0,VALID,0.0,
2011-07-25, 03:31:04,VALID,1008.592,VALID,0.0,VALID,104.0,VALID,0.0,VALID,23.148,VALID,32.0,VALID,0.0,
2011-07-25, 03:32:04,VALID,1008.599,VALID,0.0,VALID,104.0,VALID,0.0,VALID,23.129,VALID,32.0,VALID,0.0,
2011-07-25, 03:33:04,VALID,1008.617,VALID,0.0,VALID,104.0,VALID,0.0,VALID,23.129,VALID,32.0,VALID,0.0,
2011-07-25, 03:34:04,VALID,1008.62,VALID,0.0,VALID,104.0,VALID,0.0,VALID,23.129,VALID,32.0,VALID,0.0,
2011-07-25, 03:35:04,VALID,1008.607,VALID,0.0,VALID,104.0,VALID,0.0,VALID,23.148,VALID,32.0,VALID,0.0,
2011-07-25, 03:36:04,VALID,1008.577,VALID,0.0,VALID,104.0,VALID,0.0,VALID,23.148,VALID,32.0,VALID,0.0,
2011-07-25, 03:37:04,VALID,1008.569,VALID,0.0,VALID,104.0,VALID,0.0,VALID,23.129,VALID,32.0,VALID,0.0,
2011-07-25, 03:38:04,VALID,1008.563,VALID,0.0,VALID,104.0,VALID,0.106,VALID,23.129,VALID,32.0,VALID,0.0,
2011-07-25, 03:39:04,VALID,1008.551,VALID,0.0,VALID,104.0,VALID,0.0,VALID,23.129,VALID,32.0,VALID,0.0,
2011-07-25, 03:40:04,VALID,1008.547,VALID,0.0,VALID,104.0,VALID,0.0,VALID,23.15,VALID,32.0,VALID,0.26,
2011-07-25, 03:41:04,VALID,1008.551,VALID,0.0,VALID,104.0,VALID,0.106,VALID,23.129,VALID,32.0,VALID,0.221,
2011-07-25, 03:42:04,VALID,1008.523,VALID,0.0,VALID,104.0,VALID,0.106,VALID,23.148,VALID,32.0,VALID,0.278,
2011-07-25, 03:43:04,VALID,1008.521,VALID,0.0,VALID,104.0,VALID,0.106,VALID,23.187,VALID,32.0,VALID,0.195,
2011-07-25, 03:44:04,VALID,1008.531,VALID,0.0,VALID,104.0,VALID,0.0,VALID,23.207,VALID,32.0,VALID,0.113,